| time (UTC) | temp C | wind direction | speed KPH | gust KPH | rain 1hr cm | rain 24hr cm | rain mn cm | humidity % | barometer mb |
| 20260507181507 | 32 | 143 | 1.6 | 9.7 | 0.00 | 0.00 | 0.00 | 11 | 1010.3 |
| 20260507180005 | 31 | 172 | 1.6 | 8.0 | 0.00 | 0.00 | 0.00 | 12 | 1010.6 |
| 20260507174501 | 30 | 6 | 0.0 | 8.0 | 0.00 | 0.00 | 0.00 | 14 | 1010.7 |
| 20260507173058 | 30 | 322 | 1.6 | 8.0 | 0.00 | 0.00 | 0.00 | 15 | 1010.9 |
| 20260507171603 | 30 | 88 | 0.0 | 8.0 | 0.00 | 0.00 | 0.00 | 16 | 1011.0 |
| 20260507170055 | 30 | 225 | 0.0 | 6.4 | 0.00 | 0.00 | 0.00 | 15 | 1011.1 |
| 20260507164554 | 30 | 79 | 0.0 | 3.2 | 0.00 | 0.00 | 0.00 | 16 | 1011.2 |
| 20260507163055 | 29 | 103 | 0.0 | 4.8 | 0.00 | 0.00 | 0.00 | 17 | 1011.3 |
| 20260507161550 | 28 | 287 | 0.0 | 3.2 | 0.00 | 0.00 | 0.00 | 20 | 1011.4 |
| 20260507160045 | 26 | 360 | 0.0 | 3.2 | 0.00 | 0.00 | 0.00 | 22 | 1011.6 |
| 20260507154547 | 26 | 328 | 0.0 | 3.2 | 0.00 | 0.00 | 0.00 | 23 | 1011.7 |
| 20260507153048 | 26 | 33 | 0.0 | 4.8 | 0.00 | 0.00 | 0.00 | 26 | 1011.7 |
| 20260507151537 | 25 | 162 | 1.6 | 6.4 | 0.00 | 0.00 | 0.00 | 28 | 1011.8 |
| 20260507150039 | 25 | 276 | 1.6 | 9.7 | 0.00 | 0.00 | 0.00 | 28 | 1011.8 |
| 20260507144531 | 23 | 17 | 0.0 | 4.8 | 0.00 | 0.00 | 0.00 | 28 | 1011.8 |
| 20260507143034 | 23 | 19 | 0.0 | 4.8 | 0.00 | 0.00 | 0.00 | 27 | 1011.8 |
| 20260507141526 | 23 | 85 | 0.0 | 3.2 | 0.00 | 0.00 | 0.00 | 28 | 1011.6 |
| 20260507140024 | 22 | 78 | 0.0 | 1.6 | 0.00 | 0.00 | 0.00 | 29 | 1011.6 |
| 20260507134522 | 21 | 32 | 0.0 | 1.6 | 0.00 | 0.00 | 0.00 | 29 | 1011.5 |
| 20260507133020 | 21 | 6 | 0.0 | 9.7 | 0.00 | 0.00 | 0.00 | 30 | 1011.3 |
| 20260507131527 | 20 | 349 | 1.6 | 6.4 | 0.00 | 0.00 | 0.00 | 30 | 1011.1 |
| 20260507130019 | 20 | 8 | 1.6 | 8.0 | 0.00 | 0.00 | 0.00 | 31 | 1011.0 |
| 20260507124519 | 20 | 322 | 0.0 | 3.2 | 0.00 | 0.00 | 0.00 | 31 | 1011.0 |
| 20260507123018 | 20 | 360 | 0.0 | 3.2 | 0.00 | 0.00 | 0.00 | 31 | 1011.1 |
| 20260507121517 | 20 | 53 | 3.2 | 9.7 | 0.00 | 0.00 | 0.00 | 30 | 1011.2 |
| 20260507120032 | 20 | 39 | 3.2 | 9.7 | 0.00 | 0.00 | 0.00 | 31 | 1011.2 |
| 20260507114518 | 19 | 325 | 0.0 | 3.2 | 0.00 | 0.00 | 0.00 | 31 | 1011.1 |
| 20260507113014 | 19 | 11 | 0.0 | 1.6 | 0.00 | 0.00 | 0.00 | 31 | 1011.0 |
| 20260507111511 | 20 | 25 | 0.0 | 3.2 | 0.00 | 0.00 | 0.00 | 31 | 1011.0 |
| 20260507110010 | 20 | 15 | 0.0 | 3.2 | 0.00 | 0.00 | 0.00 | 31 | 1011.1 |
| 20260507104511 | 20 | 4 | 0.0 | 3.2 | 0.00 | 0.00 | 0.00 | 31 | 1011.2 |
| 20260507103008 | 20 | 15 | 0.0 | 3.2 | 0.00 | 0.00 | 0.00 | 31 | 1011.3 |
| 20260507101507 | 20 | 349 | 0.0 | 3.2 | 0.00 | 0.00 | 0.00 | 32 | 1011.4 |
| 20260507100007 | 20 | 19 | 0.0 | 1.6 | 0.00 | 0.00 | 0.00 | 32 | 1011.4 |
| 20260507094606 | 20 | 348 | 0.0 | 3.2 | 0.00 | 0.00 | 0.00 | 32 | 1011.7 |
| 20260507093001 | 20 | 39 | 0.0 | 0.0 | 0.00 | 0.00 | 0.00 | 31 | 1011.8 |
| 20260507091601 | 20 | 39 | 0.0 | 1.6 | 0.00 | 0.00 | 0.00 | 31 | 1011.8 |
| 20260507090100 | 20 | 27 | 0.0 | 1.6 | 0.00 | 0.00 | 0.00 | 31 | 1011.8 |
| 20260507084559 | 21 | 359 | 0.0 | 3.2 | 0.00 | 0.00 | 0.00 | 32 | 1011.9 |
| 20260507083158 | 21 | 5 | 0.0 | 3.2 | 0.00 | 0.00 | 0.00 | 31 | 1011.9 |
| 20260507081603 | 20 | 348 | 0.0 | 3.2 | 0.00 | 0.00 | 0.00 | 33 | 1012.0 |
| 20260507080057 | 20 | 4 | 0.0 | 0.0 | 0.00 | 0.00 | 0.00 | 35 | 1012.1 |
| 20260507074607 | 20 | 4 | 0.0 | 0.0 | 0.00 | 0.00 | 0.00 | 35 | 1012.2 |
| 20260507073050 | 21 | 4 | 0.0 | 0.0 | 0.00 | 0.00 | 0.00 | 31 | 1012.2 |
| 20260507071545 | 22 | 4 | 0.0 | 0.0 | 0.00 | 0.00 | 0.00 | 29 | 1012.1 |
| 20260507070044 | 22 | 4 | 0.0 | 0.0 | 0.00 | 0.00 | 0.00 | 27 | 1012.1 |
| 20260507064543 | 22 | 4 | 0.0 | 0.0 | 0.00 | 0.00 | 0.00 | 26 | 1012.0 |
| 20260507063042 | 23 | 356 | 0.0 | 3.2 | 0.00 | 0.00 | 0.00 | 26 | 1011.8 |
| 20260507061542 | 23 | 350 | 0.0 | 1.6 | 0.00 | 0.00 | 0.00 | 25 | 1011.9 |
| 20260507060041 | 23 | 352 | 0.0 | 3.2 | 0.00 | 0.00 | 0.00 | 25 | 1012.0 |
| 20260507054559 | 23 | 297 | 0.0 | 1.6 | 0.00 | 0.00 | 0.00 | 25 | 1011.9 |
| 20260507053043 | 23 | 307 | 0.0 | 1.6 | 0.00 | 0.00 | 0.00 | 25 | 1012.0 |
| 20260507051540 | 24 | 314 | 0.0 | 1.6 | 0.00 | 0.00 | 0.00 | 25 | 1012.0 |
| 20260507050041 | 24 | 309 | 0.0 | 1.6 | 0.00 | 0.00 | 0.00 | 24 | 1011.9 |
| 20260507044547 | 24 | 302 | 0.0 | 0.0 | 0.00 | 0.00 | 0.00 | 24 | 1011.8 |
| 20260507043038 | 23 | 243 | 0.0 | 0.0 | 0.00 | 0.00 | 0.00 | 25 | 1011.7 |
| 20260507041541 | 23 | 243 | 0.0 | 0.0 | 0.00 | 0.00 | 0.00 | 24 | 1011.5 |
| 20260507040039 | 25 | 243 | 0.0 | 1.6 | 0.00 | 0.00 | 0.00 | 23 | 1011.4 |
| 20260507034536 | 25 | 249 | 0.0 | 1.6 | 0.00 | 0.00 | 0.00 | 22 | 1011.2 |
| 20260507033037 | 25 | 235 | 0.0 | 1.6 | 0.00 | 0.00 | 0.00 | 22 | 1011.1 |
| 20260507031541 | 25 | 235 | 0.0 | 1.6 | 0.00 | 0.00 | 0.00 | 21 | 1010.9 |
| 20260507030046 | 26 | 252 | 0.0 | 6.4 | 0.00 | 0.00 | 0.00 | 20 | 1010.7 |
| 20260507024541 | 26 | 225 | 0.0 | 4.8 | 0.00 | 0.00 | 0.00 | 20 | 1010.6 |
| 20260507023034 | 26 | 239 | 0.0 | 3.2 | 0.00 | 0.00 | 0.00 | 19 | 1010.4 |
| 20260507021535 | 26 | 215 | 0.0 | 3.2 | 0.00 | 0.00 | 0.00 | 19 | 1010.2 |
| 20260507020033 | 27 | 294 | 0.0 | 3.2 | 0.00 | 0.00 | 0.00 | 18 | 1010.2 |
| 20260507014544 | 28 | 340 | 0.0 | 3.2 | 0.00 | 0.00 | 0.00 | 18 | 1010.1 |
| 20260507013031 | 28 | 287 | 0.0 | 8.0 | 0.00 | 0.00 | 0.00 | 18 | 1010.1 |
| 20260507011533 | 28 | 330 | 0.0 | 8.0 | 0.00 | 0.00 | 0.00 | 17 | 1010.1 |
| 20260507010033 | 28 | 62 | 1.6 | 9.7 | 0.00 | 0.00 | 0.00 | 17 | 1010.2 |
| 20260507004529 | 28 | 215 | 1.6 | 8.0 | 0.00 | 0.00 | 0.00 | 18 | 1010.1 |
| 20260507003028 | 29 | 217 | 1.6 | 16.1 | 0.00 | 0.00 | 0.00 | 18 | 1010.1 |
| 20260507001529 | 29 | 195 | 3.2 | 9.7 | 0.00 | 0.00 | 0.00 | 17 | 1010.1 |
| 20260507000035 | 29 | 198 | 0.0 | 6.4 | 0.00 | 0.00 | 0.00 | 18 | 1010.0 |
| 20260506234525 | 28 | 311 | 1.6 | 8.0 | 0.00 | 0.00 | 0.00 | 18 | 1010.1 |
| 20260506233023 | 28 | 35 | 1.6 | 6.4 | 0.00 | 0.00 | 0.00 | 18 | 1010.3 |
| 20260506231522 | 28 | 241 | 1.6 | 11.3 | 0.00 | 0.00 | 0.00 | 18 | 1010.4 |
| 20260506230019 | 29 | 61 | 1.6 | 8.0 | 0.00 | 0.00 | 0.00 | 17 | 1010.6 |
| 20260506224518 | 29 | 302 | 1.6 | 8.0 | 0.00 | 0.00 | 0.00 | 18 | 1010.8 |
| 20260506223015 | 29 | 195 | 0.0 | 3.2 | 0.00 | 0.00 | 0.00 | 18 | 1010.9 |
| 20260506221511 | 29 | 224 | 1.6 | 12.9 | 0.00 | 0.00 | 0.00 | 18 | 1011.2 |
| 20260506220020 | 27 | 238 | 0.0 | 6.4 | 0.00 | 0.00 | 0.00 | 19 | 1011.3 |
| 20260506214512 | 29 | 330 | 1.6 | 12.9 | 0.00 | 0.00 | 0.00 | 17 | 1011.5 |
| 20260506213008 | 28 | 333 | 1.6 | 8.0 | 0.00 | 0.00 | 0.00 | 18 | 1011.8 |
| 20260506211509 | 27 | 295 | 1.6 | 9.7 | 0.00 | 0.00 | 0.00 | 19 | 1012.0 |
| 20260506210009 | 27 | 38 | 1.6 | 11.3 | 0.00 | 0.00 | 0.00 | 19 | 1012.3 |
| 20260506204505 | 27 | 259 | 3.2 | 11.3 | 0.00 | 0.00 | 0.00 | 19 | 1012.5 |
| 20260506203004 | 27 | 293 | 0.0 | 8.0 | 0.00 | 0.00 | 0.00 | 20 | 1012.6 |
| 20260506201502 | 26 | 354 | 4.8 | 11.3 | 0.00 | 0.00 | 0.00 | 21 | 1012.8 |
| 20260506200003 | 27 | 352 | 3.2 | 9.7 | 0.00 | 0.00 | 0.00 | 20 | 1012.9 |
| 20260506194634 | 26 | 322 | 3.2 | 12.9 | 0.00 | 0.00 | 0.00 | 21 | 1013.0 |
| 20260506193105 | 26 | 318 | 3.2 | 8.0 | 0.00 | 0.00 | 0.00 | 21 | 1013.3 |
| 20260506191556 | 26 | 352 | 3.2 | 12.9 | 0.00 | 0.00 | 0.00 | 22 | 1013.4 |
| 20260506190100 | 25 | 27 | 1.6 | 9.7 | 0.00 | 0.00 | 0.00 | 23 | 1013.6 |
| 20260506184555 | 26 | 41 | 6.4 | 12.9 | 0.00 | 0.00 | 0.00 | 21 | 1013.8 |
| 20260506183054 | 26 | 4 | 1.6 | 9.7 | 0.00 | 0.00 | 0.00 | 23 | 1014.1 |